Helicity
42 46 51 52 49 44 28 40 44 35 29 35 21 23 30 28 30 37 47 55 59 63 63 60 51 43 35 63 55 120 99 102 100 87 57 31 19 21 -19 57 59 48 51 76 60 78 83
52 53 52 48 40 43 44 40 48 49 46 34 42 24 26 34 33 36 43 46 54 69 75 74 49 30 33 118 114 119 126 104 73 87 49 53 61 48 82 78 87 125 63 102 89 67 89
48 46 58 62 64 73 64 60 48 54 105 71 72 59 46 48 45 40 43 42 55 75 72 72 48 12 46 43 110 98 106 90 75 72 42 44 73 108 179 151 84 111 120 146 176 124 93
46 53 55 62 62 68 63 73 85 97 110 78 106 76 58 45 35 37 26 32 66 61 66 85 62 12 87 111 108 102 94 74 66 63 65 41 68 127 198 220 206 167 190 261 181 100 101
44 45 44 48 57 64 86 99 93 92 61 58 51 34 35 41 48 40 29 45 36 39 67 86 55 43 71 87 81 69 77 43 57 67 66 61 153 194 310 230 241 369 381 309 147 82 84
39 52 70 82 55 42 52 33 15 19 37 33 22 35 24 47 51 48 28 16 46 52 57 65 52 60 50 57 142 65 86 55 36 53 102 133 175 233 282 264 333 346 325 226 240 24 -40
40 35 54 44 31 32 18 11 22 39 29 19 31 40 26 17 29 26 18 36 67 66 51 90 80 104 86 160 96 58 64 42 7 54 94 162 198 229 188 220 246 270 196 181 204 98 37
34 36 40 62 39 26 41 56 48 44 32 33 43 33 28 15 17 24 33 58 99 98 63 130 78 102 25 77 35 78 107 43 43 66 44 129 259 157 175 198 297 431 275 227 215 122 2
34 38 44 54 47 36 40 57 55 28 25 42 28 24 29 27 13 26 33 64 59 52 80 76 78 51 35 92 50 97 122 83 61 46 69 127 207 119 143 295 389 562 541 326 285 33 15
45 40 35 30 26 24 31 42 50 26 37 39 33 14 28 27 34 51 61 62 30 36 68 65 38 45 54 38 47 92 104 109 90 32 8 68 101 61 177 261 282 403 435 375 207 131 304
26 38 25 36 47 36 27 31 47 36 55 37 45 45 41 54 42 62 71 32 26 24 58 62 62 45 63 68 80 93 116 138 108 90 83 180 109 90 233 291 278 316 175 133 166 200 193
50 39 23 41 28 35 57 38 45 33 48 52 59 41 29 41 30 76 45 30 24 99 85 89 71 52 67 70 85 152 127 110 77 61 93 169 136 109 118 81 256 281 203 188 131 158 220
78 85 69 67 66 61 56 57 44 22 23 55 19 26 41 39 98 64 43 53 119 119 79 70 61 66 72 78 80 121 127 128 116 109 74 13 81 103 150 82 201 192 73 91 69 49 79
121 116 106 91 82 74 57 58 42 27 50 34 16 31 50 59 56 48 65 112 118 92 99 91 47 40 91 80 66 78 83 107 59 94 152 100 55 98 98 123 91 1 45 2 -6 -11 32
107 124 130 137 113 97 81 67 61 53 53 32 -1 51 50 63 15 35 92 105 103 99 76 59 4 75 72 98 76 79 79 97 98 102 104 111 172 103 21 31 103 47 4 16 47 35 46
109 100 95 114 109 117 95 76 35 62 71 73 49 39 76 26 15 48 82 77 118 86 49 59 82 171 137 115 87 102 70 152 119 76 90 109 99 59 46 38 49 77 16 11 12 -22 -14
177 160 127 82 73 99 106 101 82 69 71 89 58 36 69 42 36 67 76 76 91 71 74 111 123 136 124 112 115 101 105 108 125 115 79 57 81 87 34 95 53 75 10 23 15 -38 -17
158 154 153 145 106 78 71 83 86 85 106 94 93 49 101 46 81 100 77 84 70 69 93 99 121 122 123 117 113 116 130 135 188 129 93 148 112 107 29 131 15 34 22 18 22 19 -22
116 121 129 130 127 121 99 60 75 95 92 154 174 140 93 92 93 110 88 89 65 97 89 108 118 112 134 150 124 102 105 166 111 110 137 95 127 36 30 94 91 118 146 172 83 28 -6
94 96 102 103 105 97 112 119 84 60 98 176 200 174 220 132 123 116 136 91 74 76 94 101 131 135 154 133 101 129 117 132 116 78 95 91 110 123 100 77 46 14 19 78 118 51 42
74 77 85 93 105 98 126 138 112 87 147 165 275 234 266 222 143 150 243 202 114 126 97 141 122 115 164 153 123 116 87 143 109 89 140 124 166 99 82 60 45 46 26 11 15 27 29
65 71 80 90 96 104 126 144 121 86 135 188 219 217 184 192 131 164 158 145 160 98 148 77 131 128 167 167 164 98 79 101 112 125 206 177 173 116 101 58 27 39 48 27 35 -72 21
62 66 72 77 75 76 88 91 115 130 89 187 196 200 176 205 232 201 219 160 106 71 85 30 30 122 132 92 115 112 118 111 112 157 203 172 189 141 67 15 34 16 -2 49 71 46 48
58 59 55 58 60 58 62 68 78 96 153 128 156 167 209 234 148 228 183 149 99 97 93 94 111 168 173 130 99 92 108 113 107 126 146 183 166 149 94 39 -0 -46 39 45 37 135 208
43 48 55 55 56 55 63 64 70 103 113 152 179 191 220 255 197 136 133 95 94 105 102 109 84 130 122 152 112 75 101 141 78 97 83 105 104 133 110 69 25 16 25 3 42 45 246
47 49 54 61 51 57 59 50 43 59 76 112 141 160 205 244 244 189 181 180 116 92 64 123 173 127 121 139 146 172 186 171 138 96 98 95 38 102 117 53 15 44 -6 10 32 44 126
48 50 47 48 47 62 67 58 43 61 65 94 98 109 141 199 165 116 161 139 134 150 166 143 157 131 139 148 168 183 195 170 150 107 78 63 71 70 70 43 7 56 23 -12 -32 27 32
36 43 49 49 52 56 63 58 53 62 81 153 163 169 174 207 207 136 105 144 157 135 150 151 105 108 113 121 139 145 168 135 169 125 87 53 39 49 13 27 -19 48 39 35 73 72 86
39 41 50 52 58 55 66 72 78 80 70 111 220 185 192 252 284 204 174 61 52 44 87 105 184 192 180 182 159 168 161 148 114 113 53 24 26 70 55 68 87 42 20 77 96 86 105
Wind_Speed
58 59 60 61 62 62 63 64 65 65 66 66 61 57 57 54 49 46 43 39 38 39 40 42 44 45 46 47 46 28 30 32 33 34 37 44 52 57 65 63 68 73 77 83 95 100 108
58 59 60 61 62 63 64 65 65 63 64 70 67 58 53 58 53 48 44 41 39 39 39 39 42 42 44 51 35 29 24 27 27 30 33 38 45 52 66 64 64 67 79 83 82 90 95
54 53 52 50 48 51 49 59 62 62 68 72 69 62 56 58 57 50 43 39 37 37 36 37 40 38 40 32 32 25 22 21 22 25 35 33 34 43 54 66 47 63 77 70 55 56 76
53 52 52 53 53 55 56 62 64 66 69 69 70 64 49 49 51 42 35 32 29 27 27 31 31 29 35 32 29 18 19 19 19 23 23 27 30 41 41 43 56 69 70 81 60 49 50
53 53 53 53 57 57 57 59 62 65 66 70 72 71 59 50 50 42 37 30 23 19 20 27 26 23 33 25 18 8 11 9 14 19 20 21 32 36 42 53 64 53 69 60 59 37 36
52 52 52 50 48 47 46 47 36 49 66 70 73 71 62 54 50 43 38 27 26 17 14 12 8 24 8 16 17 17 16 13 14 18 23 26 33 40 43 42 60 68 51 40 35 31 33
45 39 38 32 27 31 19 31 51 60 65 68 69 69 65 56 51 45 43 32 34 32 13 17 15 16 23 24 18 12 15 14 12 12 23 18 35 40 39 36 37 45 42 42 43 36 36
28 27 22 24 27 27 37 46 50 54 59 65 68 67 66 56 48 44 37 37 43 38 34 6 15 8 16 20 21 15 18 17 14 18 12 24 28 24 20 31 36 39 33 43 44 32 30
23 22 23 27 31 38 41 46 50 53 57 63 67 67 65 52 45 38 38 45 40 38 39 39 20 14 14 13 18 14 14 18 21 19 16 18 27 26 33 29 33 33 32 41 40 31 31
25 26 29 35 42 46 56 56 56 52 60 66 65 68 67 54 39 44 42 42 39 39 42 29 32 28 23 22 26 15 10 20 26 29 19 18 16 19 21 27 29 31 22 36 43 24 22
27 30 31 34 37 46 55 56 55 54 59 68 69 68 69 46 44 42 42 42 37 37 45 30 32 29 27 24 36 25 16 21 25 25 25 23 23 29 36 23 28 21 27 19 21 23 19
27 29 30 34 35 36 42 54 55 57 61 67 68 69 66 44 37 43 42 38 36 40 38 34 34 34 34 28 32 34 30 20 27 26 19 23 16 33 26 20 20 32 24 14 18 11 19
28 30 32 32 35 34 39 45 51 61 66 66 68 69 50 45 45 46 40 34 39 36 36 38 39 38 40 40 37 31 36 33 35 42 45 36 23 21 24 28 37 43 22 4 13 13 17
31 33 33 34 33 35 37 43 47 53 60 67 69 59 44 46 46 41 33 32 35 36 39 46 44 47 46 43 39 35 42 41 30 22 47 45 47 31 33 40 42 70 17 10 17 17 22
37 35 33 32 32 32 34 38 42 51 57 66 68 45 41 45 42 34 31 32 36 40 43 52 62 48 49 40 46 44 38 41 41 29 44 53 39 60 70 56 41 55 55 58 3 9 17
54 49 38 29 27 27 28 30 36 47 51 56 60 48 39 42 38 32 31 32 38 42 50 49 52 51 51 54 56 50 50 42 41 39 38 49 57 39 38 49 39 26 56 52 43 51 47
64 62 56 45 34 26 23 24 27 35 47 52 50 48 39 41 36 34 37 37 43 43 48 47 49 53 54 59 50 53 47 48 44 39 40 52 49 63 73 42 31 47 58 47 54 50 47
61 61 65 66 57 44 32 24 22 28 38 44 44 45 40 38 42 38 38 37 44 47 45 46 46 48 51 56 56 54 53 48 43 49 50 49 56 69 74 22 43 41 63 61 56 53 52
58 61 63 63 62 63 57 37 29 24 27 37 40 42 38 39 44 44 38 45 47 48 45 45 52 47 53 55 62 52 51 46 49 50 49 56 55 86 78 50 45 42 49 56 62 61 61
61 61 60 63 61 61 62 61 43 28 23 29 37 50 41 40 41 45 54 58 52 45 50 48 52 53 56 57 48 52 55 51 49 49 48 49 54 62 84 82 89 91 82 74 65 62 61
61 62 62 61 61 58 59 61 57 49 23 28 35 44 40 50 54 54 56 61 65 69 54 50 57 50 54 62 61 59 59 59 53 53 47 50 67 69 79 88 93 96 94 89 88 79 76
62 61 61 62 58 60 61 61 62 56 27 35 49 50 45 53 60 63 60 59 75 73 62 60 59 60 57 55 54 77 70 61 56 48 49 50 73 73 88 88 91 100 94 92 79 37 88
60 59 59 61 60 60 63 59 57 56 36 39 38 42 52 59 63 66 64 66 68 64 57 54 64 66 61 57 53 59 55 52 50 54 54 56 63 72 94 75 80 88 74 71 71 60 70
58 59 58 58 60 60 60 60 60 53 48 40 41 47 53 60 68 63 64 67 72 63 70 69 59 63 52 52 64 61 51 45 44 47 41 54 58 63 78 73 82 65 64 60 58 51 49
58 57 56 60 58 57 60 59 53 51 52 45 41 44 47 55 53 69 65 75 66 61 64 63 65 48 55 57 64 68 61 57 48 43 33 33 42 53 61 67 79 83 61 56 57 50 49
55 55 56 59 56 56 56 52 53 50 47 49 44 38 43 53 53 53 65 61 77 82 80 55 43 50 46 53 55 63 61 60 55 45 40 34 25 39 53 59 62 50 51 54 51 57 51
55 56 57 57 55 56 56 53 50 50 46 43 42 36 42 49 50 47 57 65 61 57 63 64 58 52 42 47 50 51 55 47 47 44 39 35 35 37 48 58 62 61 63 56 64 56 45
57 58 59 61 62 58 57 53 50 47 46 44 42 32 40 47 49 36 44 49 53 57 62 54 60 45 43 47 47 46 46 40 40 38 37 36 38 41 43 53 63 55 50 50 49 46 47
60 62 61 59 60 58 58 55 53 54 50 43 45 36 32 39 44 49 41 32 28 35 43 40 39 49 40 43 40 42 42 39 45 41 38 42 38 48 44 49 45 49 42 41 44 45 51
Wind_Direction
11 9 6 2 360 359 343 350 350 349 345 344 346 349 348 349 350 347 345 345 344 344 344 344 345 345 344 337 332 355 2 360 358 351 344 335 329 327 319 321 318 309 307 303 300 294 287
9 6 4 0 356 354 350 346 354 1 353 340 345 351 352 348 347 346 344 341 340 339 341 342 344 346 340 328 353 360 5 2 359 354 347 342 338 332 326 323 318 317 312 310 308 298 293
12 15 16 17 18 14 16 3 359 1 355 339 345 351 353 350 347 347 346 344 342 341 341 342 343 343 335 331 356 7 8 2 2 354 341 345 346 335 338 329 331 327 317 314 304 301 294
11 12 13 11 11 9 6 360 355 353 348 351 350 356 5 3 359 1 1 358 354 353 351 350 354 351 338 350 354 8 11 5 3 360 358 355 353 341 338 340 330 323 318 315 314 305 289
9 9 10 11 6 5 5 2 357 351 352 345 347 347 356 0 359 4 4 7 12 12 4 358 1 1 345 18 21 47 36 30 31 16 11 12 2 351 348 337 332 332 320 317 311 303 287
10 9 9 11 15 17 18 17 24 15 354 351 350 352 357 0 359 5 10 23 27 38 47 52 59 11 70 31 45 45 45 46 33 34 26 11 5 353 350 345 335 338 327 320 301 264 269
16 23 26 29 31 32 35 31 13 1 356 355 354 353 357 0 359 3 5 20 19 14 29 15 16 17 25 25 37 53 73 61 63 40 4 14 353 344 346 336 321 325 315 281 275 269 269
33 36 43 37 32 31 23 13 9 4 359 356 352 353 353 358 1 3 10 8 358 0 352 288 225 219 204 23 17 44 56 37 29 351 356 349 326 325 328 336 329 320 279 272 283 272 268
33 30 26 23 22 17 15 11 7 6 1 355 352 349 351 2 3 8 5 355 4 4 350 350 13 13 20 46 22 30 65 30 1 345 331 316 335 346 339 336 330 316 266 268 276 290 278
24 20 15 14 12 7 360 360 2 5 357 351 350 345 347 359 5 358 354 359 5 6 352 1 1 11 18 21 8 43 66 20 10 358 350 330 313 329 345 339 342 312 299 269 268 299 304
12 11 10 8 8 3 357 357 360 360 354 345 339 344 343 3 354 356 351 354 3 3 346 1 359 9 9 4 358 10 34 5 344 349 356 342 331 337 340 328 357 298 350 310 265 278 310
2 2 1 4 4 4 3 357 355 355 348 343 342 342 344 359 359 352 351 354 360 349 341 348 352 349 348 349 348 357 357 355 345 342 329 290 338 337 341 354 359 351 354 310 255 288 59
352 353 355 356 357 359 359 357 354 348 341 342 343 344 353 352 349 345 349 357 346 340 354 347 346 345 341 339 341 347 352 354 347 345 350 346 346 354 350 355 7 0 272 16 60 73 70
345 344 345 346 349 352 353 354 352 351 346 339 341 349 357 353 346 347 354 356 341 348 343 342 341 336 334 342 343 347 344 345 347 342 343 349 351 6 4 351 349 308 237 19 264 282 280
348 344 341 339 342 343 347 350 353 351 348 343 345 358 0 358 354 356 358 347 346 345 343 336 330 334 337 343 339 341 340 339 348 354 346 343 349 324 326 327 346 327 321 329 247 234 239
359 356 350 341 339 341 341 348 352 350 350 350 352 359 5 4 2 5 359 344 341 341 338 338 334 334 332 332 332 335 337 341 341 342 342 341 334 350 351 339 330 345 327 319 326 305 296
2 0 0 359 355 348 345 347 351 353 352 353 356 358 7 2 2 356 344 339 338 341 341 339 334 329 328 328 332 331 332 333 335 339 339 333 331 327 324 339 338 317 308 315 311 284 300
3 4 3 0 1 1 360 357 353 359 357 358 358 353 1 356 348 346 340 343 339 336 337 336 336 332 331 329 327 326 323 328 335 333 331 333 327 321 316 283 324 324 298 296 291 291 282
6 6 5 4 3 2 2 4 2 357 8 359 353 347 353 350 340 335 334 333 333 332 335 337 331 329 331 329 326 329 330 334 332 330 330 331 325 312 313 329 336 335 325 306 293 288 282
11 10 9 8 9 9 5 2 6 7 4 4 354 343 343 341 338 332 325 324 327 332 327 331 331 330 326 327 328 326 325 330 331 328 329 329 319 312 300 297 292 287 288 290 291 282 280
15 13 13 13 12 12 9 6 3 359 9 2 351 338 336 330 328 323 322 318 320 321 323 324 328 327 325 322 324 324 327 326 327 325 326 324 313 311 303 297 289 283 279 282 275 276 272
13 14 15 14 15 13 10 6 1 358 7 342 334 336 336 326 325 323 321 318 316 317 319 320 319 323 322 317 319 319 320 321 321 326 323 321 313 312 301 298 289 279 279 279 286 254 269
13 16 17 17 17 16 14 12 9 8 2 353 350 341 331 326 325 320 318 317 318 322 318 320 320 320 318 316 321 322 320 316 311 316 317 318 315 313 299 299 292 280 286 285 287 288 274
17 18 19 20 18 15 13 11 12 10 11 359 350 342 334 328 325 323 323 320 316 315 312 317 319 318 322 326 322 321 316 310 309 306 304 309 311 311 302 299 283 286 294 293 294 305 293
15 17 17 14 14 13 13 12 12 12 8 358 355 348 341 333 334 327 324 320 321 320 317 317 317 317 323 325 322 321 324 324 327 328 313 311 314 310 306 295 286 283 288 289 288 292 305
16 14 14 12 10 9 9 8 8 9 7 4 358 357 344 336 337 339 331 330 321 317 316 322 334 331 329 323 321 316 318 324 327 332 341 335 328 314 312 300 288 293 295 299 302 274 294
13 12 12 11 9 9 7 4 3 4 2 1 360 3 354 342 341 343 336 332 332 329 325 325 328 331 333 325 320 317 317 324 321 325 330 334 332 317 311 300 290 295 293 293 271 275 299
9 7 7 6 6 5 4 3 2 359 356 356 354 357 349 344 340 345 346 336 329 326 324 331 330 337 332 325 327 326 326 329 326 324 326 325 323 320 316 304 292 313 304 283 286 295 296
4 4 4 3 1 359 359 357 356 357 353 350 345 348 343 336 335 336 328 332 328 337 332 335 330 329 332 330 332 332 331 333 329 322 325 319 315 315 315 307 319 321 316 316 308 299 296